Weather in Karpilovka

Ukraine / Rovno District     51°24′37″N   26°42′19″E
temp.,
°C
wind,
m/s
gust,
m/s
humid.,
%
clouds,
%
prec.,
mm/h
press.,
hPa
HPBL,
m
14 april, wed
wed1400:00+9ssw2486100 0.0 1016111
03:00+9n1287100 0.0 1015115
06:00+8n2292100 0.3 1014111
09:00+9ne1293100 1.7 1014224
12:00+9e2289100 1.3 1013278
15:00+8se1292100 2.4 1013195
18:00+8ssw1295100 0.3 1013146
21:00+7wsw2397100 0.8 1014161
15 april, thu
thu1500:00+6wsw2496100 0.8 1014173
03:00+6w1295100 1.1 1014100
06:00+6nw2396100 1.7 1014124
09:00+7n2393100 2.1 1015182
12:00+9n228597 0.9 1015441
15:00+12nw446899 1.0 10141074
18:00+11wnw4776100 0.2 1014463
21:00+8wnw5988100 0.4 1014358
16 april, fri
fri1600:00+8nw3793100 0.1 1013418
03:00+7nw4894100 0.1 1013538
06:00+6wnw4895100 0.2 1012435
09:00+6wnw4796100 4.0 1013372
12:00+7wnw4594100 0.5 1013392
15:00+8wnw369398 0.9 1013412
18:00+10w228453 0.9 1013469
21:00+7ene249419 1.4 101588
17 april, sat
sat1700:00+7ne3894100 0.3 1015434
03:00+7ene5995100 2.7 1015598
06:00+6ese3595100 0.3 1017378
09:00+6ese3693100 0.4 1019363
12:00+7ese3587100 0.1 1020525
15:00+7se3585100 0.1 1021533
18:00+9se347976 0.1 1021657
21:00+7s2285100 0.1 102253
18 april, sun
sun1800:00+6sse119167 0.0 102221
03:00+4e00945 0.0 102210
06:00+3ne119331 0.0 102210
09:00+8nne118054 0.0 1022229
12:00+10ne2276100 0.0 1022493
15:00+9ese2587100 0.2 1022423
18:00+11e4675100 0.3 1021824
21:00+8e31086100 0.3 1023396